sat.trackr.live / text

‹ back to catalog

STARLINK-35530

NORAD 65921 · 2025-225M

PAYLOAD ACTIVE UNKNOWN

§ Identity

Operator
Country
US
Launch date
2025-10-08
Launch site
AFWTR
Launch vehicle
Mass (kg)
RCS (m²)

Purposes: comms

External: N2YO · Heavens-Above · Gunter

§ Orbital elements

Epoch: 2026-05-24T18:34:14.750976Z

Period
94.11 min
Inclination
53.1566°
Eccentricity
0.0000951
Mean motion
15.30204587 rev/d
Perigee alt
474.5 km
Apogee alt
475.9 km
Semi-major
6,853.3 km
B*
3.9320e-4
RAAN
172.5105°
Arg perigee
74.5088°
Mean anomaly
285.6017°
Rev number
3,605

§ Raw data

STARLINK-355301 65921U 25225M   26144.77378184  .00011306  00000+0  39320-3 0  99912 65921  53.1566 172.5105 0000951  74.5088 285.6017 15.30204587 36057

JSON: /api/v1/satellites/65921 · /tle

For live sub-satellite position, see the globe view (requires WebGL).

§ Visibility from observer

Set your observer location to see the next 7 days of passes ≥ 10°. The values pass through the URL so the page stays shareable.

No JS? Fill the form by hand. The geolocation button needs JavaScript.